Regional Weather Roundup
Issued by NWS Newport/Morehead, NC

Current Version | Previous Version | Graphics & Text | Print | Product List | Glossary On
Versions: 1 2 3 4 5 6 7 8 9 10 11 12 13 14 15 16 17 18 19 20 21 22 23 24 25 26 27 28 29 30 31 32 33 34 35 36 37 38 39 40 41 42 43 44 45 46 47 48 49 50
000 ASUS42 KMHX 291410 RWRMHX WEATHER ROUNDUP FOR EASTERN NORTH CAROLINA NATIONAL WEATHER SERVICE NEWPORT/MOREHEAD CITY NC 900 AM EST THU JAN 29 2015 NOTE: "FAIR" INDICATES FEW OR NO CLOUDS BELOW 12,000 FEET WITH NO SIGNIFICANT WEATHER AND/OR OBSTRUCTIONS TO VISIBILITY NCZ015>017-031-032-045>047-102-103-291500- NORTH COAST CITY SKY/WX TMP DP RH WIND PRES REMARKS EDENTON MOSUNNY 30 18 60 CALM 30.37S ELIZABETH CITY MOSUNNY 32 20 61 CALM 30.37S KITTY HAWK SUNNY 35 23 63 NW5 30.35R MANTEO SUNNY 36 23 60 N7 30.36S $$ NCZ045>047-081-094-103-104-291500- CENTRAL COAST CITY SKY/WX TMP DP RH WIND PRES REMARKS FRISCO SUNNY 38 25 59 N7 30.36R SWANQUARTER NOT AVBL $$ NCZ095-097-098-100-101-291500- SOUTHERN COAST CITY SKY/WX TMP DP RH WIND PRES REMARKS BEAUFORT MOSUNNY 35 22 58 N5 30.39R CEDAR ISLAND NOT AVBL JACKSONVILLE SUNNY 32 21 64 CALM 30.38 PINEY ISLAND N/A N/A N/A N/A MISG 30.38R WILMINGTON SUNNY 33 21 61 NE5 30.38S $$ NCZ011>013-027>030-043-044-078>080-089-090>093-098-291500- COASTAL PLAIN CITY SKY/WX TMP DP RH WIND PRES REMARKS AHOSKIE MOSUNNY 27 18 69 CALM 30.37S CLINTON MOSUNNY 30 27 88 CALM 30.39R ELIZABETHTOWN SUNNY 33 15 47 E3 30.39R GOLDSBORO MOSUNNY 30 27 86 CALM 30.36F GREENVILLE MOSUNNY 32 18 55 CALM 30.38R HAVELOCK MOSUNNY 35 21 56 CALM 30.39R KENANSVILLE MOSUNNY 30 24 78 CALM 30.39F KINSTON MOSUNNY 32 16 51 CALM 30.39R NEW BERN MOSUNNY 33 20 58 CALM 30.39S RICHLANDS SUNNY 30 18 59 CALM 30.39R ROCKY MOUNT MOSUNNY 30 22 72 CALM 30.37S WASHINGTON SUNNY 29 17 61 CALM 30.38S WHITEVILLE SUNNY 33 21 62 CALM 30.38R $$ AMZ130-135-150-152-154-156-158-170-250-252-270-ANZ085-086-088-633-658-670-291500- MARINE OBSERVATIONS STATION/POSITION TIME TEMP WIND PRES WAVE SWELL AIR SEA DIR/SP/G HT/PER HT/PER (UTC) (F) (DEG/KT/KT) (MB) (FT/S) (FT/S) CHESAPEAKE LIGHT 1300 33 360/ 9/ 10 1028.1 64 E VA BEACH 1400 37 48 350/ 12/ 14 1026.7 6/11 5/11 DUCK 1400 33 42 320/ 8/ 10 1027.1 2 E DUCK 1400 42 N/A 4/12 2/12 10 NE DUCK 1400 44 N/A 5/12 2/12 OREGON INLET 1400 35 41 300/ 7/ 9 1027.9 13E OREGON INLT 1400 44 N/A 6/11 3/11 HATTERAS CG 1400 36 44 350/ 10/ 12 1028.3 DIAMOND BUOY 1400 40 71 340/ 12/ 16 1027.6 5/10 5/10 17 S OCRACOKE NOT AVBL CAPE LOOKOUT 1300 35 350/ 7/ 9 1028.3 BEAUFORT LAB 1400 34 46 10/ 6/ 7 1027.8 27 SE WRIGHTSVLE NOT AVBL 5 SE WRIGHTSVLE 1300 41 52 40/ 6/ 8 1028.6 225 S CAPE HAT 1256 56 72 360/ 12/ 16 1026.3 8/10 8/10 41 SE CHARLESTON 1400 52 67 30/ 4/ 8 1027.8 3/ 6 3/ 6 $$

USA.gov is the U.S. government's official web portal to all federal, state and local government web resources and services.